Tracking 18856 objects as of 12-Dec-2017
HD Live streaming from Space Station
objects crossing your sky now

INSAT 1C

Track INSAT 1C now!
INSAT 1C is classified as:


NORAD ID: 19330
Int'l Code: 1988-063A
Perigee: 35,800.6 km
Apogee: 35,810.7 km
Inclination: 14.8 °
Period: 1,436.7 minutes
Semi major axis: 42176 km
RCS: 1.9952 m2 (large)
Launch date: July 21, 1988
Source: India (IND)
Launch site: FRENCH GUIANA (FRGUI)
aabbcc
Your satellite tracking list
Your tracking list is empty




NASA's NSSDC Master Catalog

Two Line Element Set (TLE):
1 19330U 88063A   17345.76363795 -.00000104 +00000-0 +00000-0 0  9993
2 19330 014.8275 354.3021 0001194 328.8021 106.7609 01.00229223089166
Source of the keplerian elements: AFSPC